QPF
0.00 0.00 0.00 0.00 0.00 0.00 0.00 0.00 0.00 0.00 0.00 0.00 0.00 0.00 0.00 0.00 0.00 0.01 0.00 0.01 0.01 0.01 0.01 0.01 0.01 0.01 0.01 0.01 0.01 0.01 0.01 0.01 0.00 0.00 0.00 0.01 0.01 0.01 0.01 0.00 0.00 0.01 0.01
0.01 0.01 0.01 0.01 0.00 0.00 0.00 0.00 0.00 0.00 0.00 0.00 0.00 0.00 0.00 0.00 0.01 0.01 0.01 0.01 0.01 0.01 0.01 0.02 0.01 0.01 0.01 0.01 0.00 0.00 0.00 0.00 0.00 0.00 0.00 0.00 0.01 0.01 0.00 0.00 0.00 0.01 0.01
0.03 0.02 0.01 0.01 0.01 0.01 0.00 0.00 0.00 0.00 0.00 0.00 0.00 0.01 0.01 0.01 0.01 0.01 0.01 0.01 0.01 0.01 0.01 0.01 0.01 0.01 0.01 0.00 0.00 0.00 0.00 0.00 0.00 0.00 0.00 0.00 0.00 0.01 0.00 0.00 0.01 0.01 0.01
0.04 0.03 0.02 0.02 0.02 0.01 0.01 0.00 0.00 0.00 0.00 0.00 0.00 0.01 0.01 0.02 0.02 0.01 0.01 0.01 0.01 0.01 0.01 0.01 0.01 0.01 0.00 0.00 0.00 0.00 0.00 0.00 0.00 0.00 0.00 0.00 0.00 0.01 0.00 0.00 0.01 0.01 0.01
0.07 0.05 0.03 0.03 0.03 0.03 0.02 0.01 0.01 0.01 0.01 0.01 0.01 0.01 0.02 0.03 0.02 0.02 0.02 0.01 0.01 0.02 0.01 0.01 0.00 0.00 0.00 0.00 0.00 0.00 0.00 0.00 0.00 0.00 0.00 0.00 0.00 0.01 0.01 0.01 0.01 0.00 0.00
0.09 0.09 0.07 0.06 0.05 0.05 0.05 0.04 0.02 0.02 0.01 0.01 0.01 0.01 0.02 0.03 0.02 0.02 0.02 0.01 0.01 0.01 0.01 0.01 0.00 0.00 0.00 0.00 0.00 0.00 0.00 0.00 0.00 0.00 0.00 0.00 0.00 0.01 0.00 0.00 0.00 0.00 0.00
0.09 0.10 0.10 0.09 0.07 0.06 0.06 0.07 0.05 0.04 0.02 0.01 0.01 0.02 0.02 0.03 0.02 0.02 0.02 0.01 0.01 0.01 0.01 0.00 0.00 0.00 0.00 0.00 0.00 0.00 0.00 0.00 0.00 0.00 0.00 0.00 0.00 0.00 0.00 0.00 0.00 0.00 0.00
0.07 0.10 0.12 0.13 0.11 0.08 0.06 0.07 0.07 0.06 0.04 0.02 0.02 0.02 0.03 0.03 0.02 0.01 0.01 0.02 0.01 0.01 0.01 0.01 0.00 0.00 0.00 0.00 0.00 0.00 0.00 0.00 0.00 0.00 0.00 0.00 0.00 0.00 0.00 0.00 0.00 0.00 0.00
0.06 0.09 0.12 0.16 0.15 0.12 0.10 0.08 0.07 0.08 0.07 0.05 0.03 0.03 0.04 0.04 0.03 0.02 0.02 0.02 0.01 0.01 0.01 0.00 0.00 0.00 0.00 0.00 0.00 0.00 0.00 0.00 0.00 0.00 0.00 0.00 0.00 0.00 0.00 0.00 0.00 0.00 0.00
0.08 0.08 0.13 0.19 0.19 0.16 0.13 0.10 0.09 0.08 0.08 0.07 0.06 0.04 0.04 0.03 0.04 0.03 0.02 0.03 0.01 0.01 0.01 0.00 0.00 0.00 0.00 0.00 0.00 0.00 0.00 0.00 0.00 0.00 0.00 0.00 0.00 0.00 0.00 0.00 0.00 0.00 0.00
0.12 0.10 0.11 0.18 0.22 0.19 0.15 0.13 0.11 0.10 0.09 0.08 0.07 0.06 0.05 0.04 0.04 0.03 0.02 0.02 0.01 0.01 0.00 0.00 0.00 0.00 0.00 0.00 0.00 0.00 0.00 0.00 0.00 0.00 0.00 0.00 0.00 0.00 0.00 0.00 0.00 0.00 0.00
0.18 0.14 0.12 0.15 0.21 0.23 0.20 0.15 0.13 0.11 0.10 0.09 0.07 0.07 0.05 0.04 0.03 0.02 0.02 0.03 0.02 0.01 0.01 0.01 0.00 0.00 0.00 0.00 0.00 0.00 0.00 0.00 0.00 0.00 0.00 0.00 0.00 0.00 0.00 0.00 0.00 0.00 0.00
0.25 0.23 0.17 0.17 0.18 0.21 0.23 0.18 0.14 0.11 0.10 0.09 0.08 0.07 0.05 0.05 0.04 0.02 0.02 0.03 0.02 0.01 0.01 0.01 0.00 0.00 0.00 0.00 0.00 0.00 0.00 0.00 0.00 0.00 0.00 0.00 0.00 0.00 0.00 0.00 0.00 0.00 0.00
0.28 0.29 0.24 0.20 0.20 0.19 0.21 0.18 0.14 0.13 0.12 0.10 0.08 0.07 0.06 0.05 0.04 0.02 0.01 0.01 0.01 0.00 0.00 0.00 0.00 0.00 0.00 0.00 0.00 0.00 0.00 0.00 0.00 0.00 0.00 0.00 0.00 0.00 0.00 0.00 0.00 0.00 0.00
0.26 0.28 0.27 0.23 0.20 0.18 0.19 0.18 0.15 0.15 0.14 0.10 0.08 0.07 0.06 0.05 0.03 0.02 0.01 0.01 0.00 0.00 0.00 0.00 0.00 0.00 0.00 0.00 0.00 0.00 0.00 0.00 0.00 0.00 0.00 0.00 0.00 0.00 0.00 0.00 0.00 0.00 0.00
0.24 0.27 0.29 0.25 0.23 0.18 0.17 0.19 0.16 0.15 0.16 0.14 0.12 0.09 0.08 0.06 0.04 0.02 0.02 0.01 0.01 0.01 0.01 0.00 0.00 0.00 0.00 0.00 0.00 0.00 0.00 0.00 0.00 0.00 0.00 0.00 0.00 0.00 0.00 0.00 0.00 0.00 0.00
0.23 0.25 0.29 0.27 0.26 0.22 0.17 0.20 0.19 0.16 0.16 0.15 0.13 0.11 0.10 0.09 0.07 0.04 0.02 0.01 0.01 0.01 0.01 0.01 0.00 0.00 0.00 0.00 0.00 0.00 0.00 0.00 0.00 0.00 0.00 0.00 0.00 0.00 0.00 0.00 0.00 0.00 0.01
0.23 0.23 0.29 0.32 0.29 0.26 0.19 0.19 0.23 0.20 0.18 0.16 0.12 0.11 0.11 0.11 0.09 0.06 0.04 0.02 0.02 0.02 0.01 0.02 0.01 0.01 0.01 0.01 0.00 0.01 0.01 0.00 0.00 0.01 0.01 0.00 0.00 0.00 0.00 0.00 0.00 0.00 0.01
0.25 0.25 0.26 0.36 0.36 0.30 0.27 0.23 0.24 0.25 0.20 0.17 0.14 0.12 0.10 0.11 0.10 0.07 0.05 0.04 0.03 0.03 0.02 0.01 0.01 0.01 0.01 0.01 0.01 0.00 0.00 0.00 0.00 0.00 0.00 0.00 0.00 0.00 0.00 0.00 0.00 0.00 0.00
0.26 0.29 0.23 0.32 0.42 0.35 0.32 0.29 0.29 0.29 0.25 0.20 0.17 0.14 0.10 0.10 0.10 0.08 0.06 0.04 0.04 0.03 0.03 0.02 0.01 0.01 0.01 0.01 0.01 0.00 0.00 0.00 0.00 0.00 0.00 0.00 0.00 0.00 0.00 0.00 0.00 0.00 0.00
0.24 0.31 0.24 0.26 0.39 0.43 0.37 0.33 0.32 0.31 0.26 0.22 0.20 0.17 0.12 0.09 0.10 0.09 0.07 0.05 0.04 0.04 0.03 0.03 0.03 0.02 0.02 0.02 0.02 0.01 0.01 0.01 0.01 0.00 0.00 0.01 0.01 0.00 0.00 0.00 0.00 0.00 0.00
0.27 0.30 0.25 0.24 0.34 0.44 0.38 0.36 0.36 0.33 0.27 0.22 0.22 0.20 0.17 0.11 0.10 0.09 0.07 0.05 0.04 0.04 0.04 0.04 0.04 0.04 0.03 0.04 0.04 0.03 0.02 0.01 0.01 0.01 0.01 0.01 0.01 0.01 0.00 0.00 0.00 0.00 0.00
0.30 0.33 0.29 0.27 0.32 0.42 0.39 0.40 0.43 0.43 0.38 0.28 0.24 0.22 0.18 0.14 0.11 0.09 0.08 0.06 0.04 0.03 0.03 0.03 0.03 0.04 0.04 0.03 0.04 0.05 0.05 0.03 0.02 0.02 0.01 0.01 0.01 0.01 0.01 0.01 0.00 0.00 0.00
0.28 0.33 0.32 0.32 0.34 0.37 0.36 0.38 0.45 0.45 0.41 0.34 0.24 0.21 0.17 0.15 0.13 0.12 0.09 0.08 0.04 0.03 0.03 0.03 0.03 0.03 0.04 0.04 0.04 0.05 0.05 0.04 0.04 0.03 0.02 0.01 0.01 0.01 0.01 0.01 0.01 0.01 0.00
0.23 0.29 0.25 0.29 0.34 0.35 0.32 0.31 0.34 0.39 0.36 0.35 0.33 0.27 0.18 0.15 0.14 0.12 0.11 0.08 0.05 0.03 0.02 0.02 0.03 0.03 0.04 0.04 0.04 0.05 0.05 0.04 0.04 0.05 0.03 0.02 0.02 0.02 0.02 0.02 0.02 0.02 0.01
0.18 0.19 0.17 0.18 0.29 0.34 0.33 0.31 0.30 0.29 0.30 0.31 0.33 0.32 0.23 0.16 0.15 0.12 0.09 0.08 0.06 0.04 0.03 0.03 0.03 0.03 0.03 0.03 0.03 0.03 0.04 0.04 0.04 0.05 0.05 0.04 0.03 0.02 0.03 0.03 0.03 0.03 0.03
MSLP
1009.53 1009.12 1008.94 1008.99 1009.20 1009.50 1009.81 1010.06 1010.22 1010.31 1010.35 1010.42 1010.57 1010.84 1011.23 1011.73 1012.29 1012.84 1013.34 1013.74 1014.05 1014.28 1014.47 1014.65 1014.84 1015.08 1015.34 1015.61 1015.88 1016.10 1016.29 1016.42 1016.52 1016.59 1016.65 1016.71 1016.77 1016.83 1016.88 1016.93 1016.97 1017.00 1017.05
1009.62 1009.26 1009.11 1009.16 1009.37 1009.66 1009.97 1010.23 1010.42 1010.54 1010.63 1010.73 1010.91 1011.19 1011.58 1012.04 1012.55 1013.06 1013.51 1013.88 1014.18 1014.42 1014.63 1014.84 1015.08 1015.33 1015.61 1015.89 1016.16 1016.38 1016.56 1016.70 1016.81 1016.91 1017.00 1017.09 1017.19 1017.28 1017.36 1017.43 1017.48 1017.54 1017.59
1009.56 1009.23 1009.10 1009.16 1009.38 1009.68 1010.02 1010.33 1010.58 1010.77 1010.93 1011.10 1011.32 1011.60 1011.96 1012.37 1012.80 1013.23 1013.61 1013.94 1014.22 1014.47 1014.71 1014.97 1015.25 1015.56 1015.88 1016.18 1016.46 1016.70 1016.89 1017.04 1017.18 1017.30 1017.42 1017.54 1017.66 1017.77 1017.87 1017.96 1018.03 1018.09 1018.15
1009.41 1009.10 1008.97 1009.04 1009.27 1009.60 1009.98 1010.34 1010.67 1010.95 1011.19 1011.43 1011.68 1011.97 1012.29 1012.64 1013.00 1013.34 1013.65 1013.93 1014.19 1014.45 1014.73 1015.04 1015.39 1015.76 1016.13 1016.48 1016.78 1017.04 1017.26 1017.44 1017.59 1017.73 1017.87 1018.01 1018.14 1018.27 1018.37 1018.46 1018.54 1018.60 1018.66
1009.29 1008.97 1008.84 1008.91 1009.13 1009.47 1009.87 1010.28 1010.67 1011.02 1011.33 1011.63 1011.92 1012.22 1012.52 1012.82 1013.12 1013.39 1013.64 1013.88 1014.14 1014.42 1014.74 1015.11 1015.52 1015.95 1016.37 1016.77 1017.11 1017.40 1017.64 1017.84 1018.01 1018.17 1018.32 1018.46 1018.59 1018.71 1018.81 1018.89 1018.96 1019.03 1019.09
1009.28 1008.95 1008.80 1008.84 1009.04 1009.36 1009.75 1010.16 1010.56 1010.95 1011.31 1011.64 1011.97 1012.29 1012.60 1012.89 1013.16 1013.40 1013.63 1013.86 1014.12 1014.43 1014.79 1015.21 1015.67 1016.15 1016.62 1017.05 1017.42 1017.74 1018.00 1018.21 1018.40 1018.56 1018.71 1018.84 1018.96 1019.06 1019.15 1019.22 1019.28 1019.35 1019.41
1009.43 1009.10 1008.93 1008.93 1009.08 1009.33 1009.66 1010.02 1010.38 1010.75 1011.11 1011.47 1011.83 1012.18 1012.52 1012.84 1013.13 1013.40 1013.65 1013.91 1014.19 1014.53 1014.92 1015.37 1015.86 1016.37 1016.85 1017.30 1017.69 1018.02 1018.30 1018.52 1018.71 1018.88 1019.02 1019.14 1019.24 1019.32 1019.38 1019.44 1019.49 1019.56 1019.64
1009.76 1009.43 1009.24 1009.19 1009.26 1009.42 1009.64 1009.89 1010.17 1010.47 1010.79 1011.15 1011.53 1011.93 1012.33 1012.71 1013.07 1013.40 1013.72 1014.03 1014.36 1014.73 1015.14 1015.60 1016.09 1016.60 1017.08 1017.52 1017.91 1018.24 1018.52 1018.75 1018.94 1019.10 1019.23 1019.34 1019.42 1019.48 1019.53 1019.58 1019.63 1019.71 1019.80
1010.19 1009.88 1009.68 1009.59 1009.58 1009.62 1009.70 1009.81 1009.96 1010.15 1010.41 1010.74 1011.13 1011.58 1012.06 1012.54 1013.00 1013.43 1013.83 1014.22 1014.60 1015.00 1015.42 1015.88 1016.35 1016.82 1017.27 1017.69 1018.06 1018.38 1018.66 1018.89 1019.09 1019.25 1019.38 1019.48 1019.55 1019.60 1019.64 1019.68 1019.75 1019.83 1019.95
1010.62 1010.35 1010.16 1010.04 1009.95 1009.89 1009.83 1009.79 1009.79 1009.86 1010.03 1010.32 1010.72 1011.21 1011.77 1012.35 1012.92 1013.47 1013.97 1014.44 1014.87 1015.30 1015.72 1016.15 1016.59 1017.01 1017.42 1017.80 1018.15 1018.46 1018.73 1018.97 1019.18 1019.35 1019.48 1019.59 1019.66 1019.71 1019.75 1019.80 1019.87 1019.97 1020.10
1010.94 1010.72 1010.56 1010.43 1010.30 1010.15 1009.97 1009.80 1009.68 1009.63 1009.72 1009.96 1010.35 1010.87 1011.49 1012.16 1012.84 1013.49 1014.09 1014.63 1015.11 1015.56 1015.98 1016.39 1016.78 1017.16 1017.53 1017.88 1018.20 1018.49 1018.76 1019.01 1019.23 1019.42 1019.57 1019.68 1019.77 1019.83 1019.88 1019.94 1020.02 1020.13 1020.27
1011.04 1010.89 1010.78 1010.66 1010.52 1010.32 1010.07 1009.81 1009.59 1009.46 1009.48 1009.67 1010.04 1010.58 1011.25 1011.98 1012.73 1013.46 1014.13 1014.74 1015.27 1015.74 1016.16 1016.55 1016.92 1017.26 1017.59 1017.91 1018.21 1018.50 1018.78 1019.03 1019.27 1019.47 1019.64 1019.77 1019.87 1019.95 1020.02 1020.09 1020.18 1020.30 1020.44
1010.89 1010.80 1010.73 1010.66 1010.53 1010.32 1010.06 1009.77 1009.50 1009.33 1009.30 1009.46 1009.82 1010.35 1011.02 1011.78 1012.58 1013.35 1014.08 1014.72 1015.30 1015.79 1016.23 1016.62 1016.97 1017.30 1017.62 1017.92 1018.22 1018.50 1018.78 1019.04 1019.29 1019.51 1019.69 1019.84 1019.96 1020.05 1020.13 1020.22 1020.31 1020.43 1020.56
1010.45 1010.41 1010.40 1010.37 1010.29 1010.12 1009.89 1009.62 1009.37 1009.20 1009.16 1009.30 1009.63 1010.14 1010.79 1011.55 1012.34 1013.14 1013.89 1014.57 1015.18 1015.71 1016.18 1016.59 1016.96 1017.30 1017.62 1017.92 1018.22 1018.51 1018.78 1019.05 1019.29 1019.51 1019.70 1019.85 1019.98 1020.08 1020.18 1020.27 1020.37 1020.48 1020.60
1009.77 1009.77 1009.80 1009.83 1009.80 1009.71 1009.56 1009.36 1009.16 1009.03 1009.01 1009.14 1009.45 1009.92 1010.53 1011.25 1012.02 1012.81 1013.57 1014.28 1014.93 1015.51 1016.03 1016.48 1016.89 1017.27 1017.60 1017.92 1018.22 1018.51 1018.78 1019.03 1019.26 1019.47 1019.65 1019.80 1019.92 1020.03 1020.12 1020.22 1020.31 1020.42 1020.53
1008.89 1008.91 1008.98 1009.06 1009.11 1009.11 1009.06 1008.96 1008.86 1008.79 1008.80 1008.94 1009.22 1009.65 1010.20 1010.86 1011.60 1012.36 1013.12 1013.86 1014.56 1015.20 1015.78 1016.31 1016.78 1017.20 1017.57 1017.91 1018.22 1018.50 1018.75 1018.99 1019.20 1019.38 1019.54 1019.67 1019.78 1019.87 1019.96 1020.06 1020.15 1020.25 1020.35
1007.89 1007.92 1008.02 1008.15 1008.29 1008.39 1008.44 1008.46 1008.45 1008.46 1008.52 1008.66 1008.92 1009.29 1009.79 1010.39 1011.07 1011.81 1012.58 1013.35 1014.10 1014.81 1015.48 1016.08 1016.62 1017.10 1017.52 1017.88 1018.19 1018.47 1018.71 1018.92 1019.10 1019.25 1019.38 1019.49 1019.58 1019.67 1019.75 1019.83 1019.93 1020.03 1020.12
1006.80 1006.86 1007.00 1007.19 1007.40 1007.60 1007.76 1007.88 1007.97 1008.05 1008.14 1008.29 1008.51 1008.83 1009.27 1009.81 1010.45 1011.17 1011.95 1012.76 1013.57 1014.36 1015.11 1015.80 1016.41 1016.95 1017.41 1017.80 1018.13 1018.40 1018.64 1018.83 1018.99 1019.12 1019.23 1019.32 1019.40 1019.47 1019.55 1019.62 1019.71 1019.81 1019.90
1005.68 1005.77 1005.96 1006.22 1006.51 1006.80 1007.05 1007.26 1007.43 1007.55 1007.67 1007.80 1008.00 1008.27 1008.65 1009.14 1009.75 1010.46 1011.26 1012.11 1012.98 1013.85 1014.68 1015.44 1016.13 1016.72 1017.23 1017.65 1018.00 1018.29 1018.53 1018.72 1018.89 1019.02 1019.13 1019.22 1019.29 1019.36 1019.43 1019.50 1019.59 1019.67 1019.76
1004.53 1004.69 1004.94 1005.28 1005.64 1006.01 1006.34 1006.62 1006.83 1006.98 1007.10 1007.22 1007.38 1007.60 1007.94 1008.39 1008.98 1009.69 1010.51 1011.40 1012.33 1013.26 1014.16 1014.99 1015.74 1016.39 1016.95 1017.41 1017.80 1018.11 1018.38 1018.61 1018.80 1018.96 1019.09 1019.21 1019.30 1019.38 1019.46 1019.53 1019.61 1019.69 1019.76
1003.37 1003.61 1003.94 1004.35 1004.80 1005.23 1005.62 1005.94 1006.17 1006.33 1006.44 1006.54 1006.66 1006.85 1007.15 1007.58 1008.16 1008.88 1009.72 1010.65 1011.62 1012.60 1013.55 1014.43 1015.23 1015.93 1016.53 1017.04 1017.48 1017.85 1018.17 1018.46 1018.71 1018.94 1019.13 1019.30 1019.44 1019.55 1019.65 1019.73 1019.80 1019.87 1019.93
1002.22 1002.53 1002.95 1003.44 1003.94 1004.43 1004.85 1005.19 1005.44 1005.59 1005.68 1005.76 1005.85 1006.03 1006.32 1006.75 1007.33 1008.06 1008.92 1009.87 1010.87 1011.88 1012.85 1013.77 1014.60 1015.33 1015.98 1016.54 1017.04 1017.48 1017.89 1018.26 1018.60 1018.92 1019.20 1019.45 1019.66 1019.83 1019.96 1020.07 1020.14 1020.20 1020.23
1001.11 1001.47 1001.95 1002.49 1003.04 1003.56 1004.00 1004.35 1004.59 1004.74 1004.82 1004.89 1004.99 1005.17 1005.47 1005.91 1006.52 1007.26 1008.14 1009.10 1010.11 1011.12 1012.09 1013.02 1013.86 1014.62 1015.30 1015.92 1016.48 1017.00 1017.50 1017.97 1018.42 1018.84 1019.23 1019.58 1019.88 1020.12 1020.31 1020.46 1020.55 1020.60 1020.62
1000.08 1000.46 1000.96 1001.52 1002.08 1002.61 1003.05 1003.39 1003.62 1003.77 1003.86 1003.95 1004.08 1004.30 1004.64 1005.13 1005.77 1006.54 1007.42 1008.38 1009.37 1010.36 1011.32 1012.23 1013.07 1013.84 1014.55 1015.20 1015.82 1016.42 1017.00 1017.56 1018.12 1018.64 1019.14 1019.60 1020.00 1020.33 1020.60 1020.80 1020.93 1021.00 1021.00
999.22 999.55 1000.02 1000.55 1001.09 1001.58 1002.00 1002.32 1002.55 1002.71 1002.84 1002.98 1003.18 1003.47 1003.89 1004.44 1005.12 1005.93 1006.82 1007.76 1008.72 1009.68 1010.60 1011.47 1012.28 1013.05 1013.76 1014.45 1015.11 1015.76 1016.40 1017.04 1017.68 1018.30 1018.89 1019.44 1019.94 1020.37 1020.73 1021.00 1021.19 1021.29 1021.32
998.62 998.85 999.21 999.66 1000.12 1000.56 1000.92 1001.21 1001.44 1001.63 1001.81 1002.03 1002.32 1002.72 1003.24 1003.87 1004.62 1005.45 1006.35 1007.27 1008.19 1009.09 1009.96 1010.78 1011.56 1012.31 1013.02 1013.71 1014.39 1015.07 1015.75 1016.43 1017.11 1017.79 1018.45 1019.08 1019.67 1020.19 1020.64 1021.00 1021.27 1021.43 1021.50
Thickness
5771 5775 5775 5774 5773 5773 5773 5773 5772 5770 5768 5767 5766 5764 5763 5762 5760 5758 5756 5754 5752 5751 5749 5747 5746 5744 5743 5741 5740 5738 5737 5736 5734 5734 5733 5732 5731 5731 5730 5729 5728 5727 5726
5772 5771 5770 5770 5769 5769 5769 5769 5768 5766 5765 5764 5762 5761 5760 5758 5757 5755 5754 5752 5750 5748 5746 5745 5743 5741 5740 5738 5736 5735 5733 5732 5731 5730 5729 5729 5728 5727 5726 5725 5724 5723 5722
5766 5766 5765 5764 5764 5764 5764 5764 5763 5762 5761 5760 5759 5757 5756 5755 5754 5752 5750 5749 5747 5745 5744 5742 5740 5738 5736 5735 5733 5731 5730 5728 5727 5726 5726 5725 5724 5724 5723 5722 5721 5720 5719
5760 5760 5759 5759 5759 5759 5759 5759 5759 5758 5757 5756 5755 5754 5753 5752 5750 5749 5747 5746 5744 5742 5740 5738 5736 5735 5733 5731 5730 5728 5726 5725 5724 5723 5722 5722 5721 5720 5719 5718 5717 5716 5715
5751 5752 5753 5753 5754 5754 5754 5754 5754 5753 5753 5752 5751 5750 5749 5748 5747 5745 5744 5742 5740 5739 5737 5735 5733 5731 5729 5728 5726 5725 5723 5722 5720 5719 5719 5718 5718 5717 5716 5714 5713 5712 5711
5741 5744 5745 5747 5747 5748 5748 5748 5749 5749 5748 5748 5747 5746 5745 5744 5743 5742 5740 5738 5737 5735 5733 5731 5729 5728 5726 5725 5723 5722 5720 5718 5717 5716 5715 5714 5714 5713 5712 5710 5709 5708 5707
5730 5734 5737 5739 5741 5742 5743 5743 5743 5744 5744 5743 5743 5742 5741 5740 5739 5738 5736 5734 5733 5731 5729 5727 5726 5724 5723 5721 5720 5718 5716 5715 5714 5712 5711 5711 5710 5709 5708 5707 5705 5704 5703
5719 5724 5727 5731 5733 5735 5737 5737 5738 5738 5738 5738 5738 5738 5737 5736 5735 5734 5732 5730 5729 5727 5725 5723 5722 5720 5719 5717 5716 5714 5713 5712 5710 5709 5708 5707 5707 5706 5704 5703 5701 5700 5699
5708 5713 5718 5721 5724 5727 5729 5731 5732 5733 5733 5733 5733 5733 5732 5732 5731 5730 5728 5726 5725 5723 5721 5720 5718 5717 5715 5714 5712 5711 5710 5708 5707 5706 5704 5704 5703 5702 5701 5699 5698 5696 5695
5696 5702 5707 5712 5715 5718 5722 5723 5725 5727 5728 5728 5728 5728 5727 5726 5726 5725 5723 5722 5720 5719 5717 5716 5714 5713 5711 5710 5709 5707 5706 5705 5703 5702 5701 5700 5699 5699 5697 5696 5694 5693 5691
5684 5690 5697 5703 5706 5710 5713 5716 5717 5720 5721 5722 5722 5722 5722 5721 5720 5719 5719 5718 5716 5714 5713 5712 5710 5709 5708 5706 5705 5704 5702 5701 5700 5699 5698 5697 5696 5695 5694 5692 5691 5690 5688
5672 5680 5686 5692 5697 5701 5705 5708 5710 5712 5714 5716 5717 5717 5717 5716 5715 5715 5713 5713 5711 5710 5708 5707 5706 5705 5704 5703 5701 5700 5699 5698 5697 5696 5695 5694 5693 5692 5690 5689 5688 5686 5684
5663 5671 5677 5682 5688 5692 5696 5700 5702 5705 5707 5709 5711 5711 5711 5711 5710 5709 5708 5707 5706 5705 5704 5703 5702 5701 5700 5699 5698 5697 5695 5694 5693 5693 5692 5691 5690 5689 5688 5686 5684 5683 5681
5652 5660 5667 5672 5678 5683 5688 5692 5695 5698 5701 5703 5705 5706 5706 5706 5705 5705 5704 5703 5702 5701 5700 5699 5697 5697 5696 5695 5694 5693 5692 5691 5690 5690 5689 5688 5687 5686 5685 5683 5681 5680 5678
5642 5650 5657 5663 5668 5675 5679 5684 5688 5692 5695 5698 5699 5700 5702 5702 5701 5701 5700 5699 5698 5697 5696 5694 5693 5692 5692 5691 5690 5689 5688 5688 5687 5686 5685 5684 5683 5682 5681 5680 5678 5677 5675
5633 5640 5647 5654 5659 5665 5669 5675 5681 5684 5688 5691 5694 5695 5697 5698 5698 5697 5696 5695 5694 5693 5692 5691 5689 5688 5687 5687 5686 5686 5685 5684 5683 5682 5681 5680 5679 5678 5677 5676 5674 5673 5671
5623 5630 5637 5644 5650 5656 5661 5668 5674 5678 5682 5685 5688 5690 5692 5693 5693 5693 5692 5690 5689 5688 5687 5685 5684 5683 5683 5682 5682 5681 5681 5680 5679 5678 5677 5676 5675 5674 5673 5671 5670 5669 5667
5612 5619 5628 5635 5641 5648 5655 5661 5666 5671 5675 5679 5682 5684 5687 5688 5688 5688 5687 5685 5684 5683 5682 5681 5680 5678 5678 5677 5676 5677 5676 5676 5675 5674 5673 5672 5671 5670 5669 5667 5666 5665 5663
5603 5611 5619 5626 5632 5639 5646 5653 5658 5663 5669 5673 5675 5678 5681 5682 5683 5684 5683 5681 5679 5678 5677 5676 5675 5674 5673 5672 5671 5672 5671 5671 5671 5670 5669 5668 5667 5665 5664 5663 5661 5660 5658
5596 5604 5611 5618 5624 5630 5637 5643 5649 5654 5661 5665 5669 5672 5675 5677 5677 5678 5678 5676 5675 5673 5672 5671 5670 5669 5668 5666 5665 5664 5665 5665 5665 5665 5665 5663 5662 5661 5659 5658 5656 5654 5652
5591 5597 5604 5610 5616 5622 5628 5634 5640 5646 5652 5659 5663 5666 5669 5672 5672 5672 5672 5671 5671 5669 5668 5667 5665 5663 5661 5659 5656 5654 5656 5658 5659 5659 5659 5658 5657 5656 5654 5653 5651 5649 5647
5585 5592 5599 5604 5611 5616 5623 5629 5635 5640 5646 5652 5655 5658 5662 5666 5667 5667 5667 5667 5666 5664 5662 5661 5660 5657 5655 5654 5650 5645 5643 5646 5650 5652 5652 5652 5651 5649 5648 5647 5645 5643 5641
5580 5588 5596 5600 5605 5610 5617 5622 5626 5631 5638 5643 5647 5652 5656 5659 5661 5661 5661 5661 5660 5660 5658 5657 5656 5652 5649 5647 5647 5642 5637 5637 5639 5642 5644 5644 5643 5641 5641 5640 5638 5636 5635
5575 5582 5588 5593 5599 5604 5610 5615 5621 5627 5632 5637 5643 5646 5648 5651 5652 5653 5654 5655 5654 5653 5653 5651 5650 5648 5644 5641 5639 5639 5637 5635 5631 5631 5634 5635 5634 5633 5632 5632 5631 5629 5628
5571 5576 5582 5587 5594 5599 5604 5610 5615 5619 5625 5629 5634 5637 5640 5643 5645 5646 5646 5646 5646 5646 5646 5645 5642 5640 5638 5636 5634 5632 5629 5627 5627 5624 5624 5625 5624 5625 5625 5624 5623 5621 5620
5567 5573 5578 5583 5588 5593 5599 5604 5608 5613 5618 5621 5626 5629 5632 5634 5635 5637 5638 5638 5638 5638 5638 5637 5635 5633 5631 5630 5628 5626 5624 5621 5619 5617 5615 5616 5615 5616 5615 5614 5613 5612 5611